Location: Colle Santa Colomba
(42.0333°N, 12.5667°E)
Time: 22:11:41
(UTC+00:00)

ATLAS 5 CENTAUR R/B - Pass Details

Date: 25 October 2021
Orbit: 497 x 1159 km, 63.4° (Epoch: 25 November)

Event Time Altitude Azimuth Distance (km) Brightness Sun altitude
Rises 17:30:21 0° 271° (W) 2,649 6.7 -15.0°
Reaches altitude 10° 17:33:33 10° 301° (WNW) 1,841 4.9 -15.6°
Maximum altitude 17:35:29 13° 330° (NNW) 1,715 4.2 -15.9°
Drops below altitude 10° 17:37:33 10° 358° (N) 1,975 4.1 -16.3°
Enters shadow 17:40:35 - 22° (NNE) 2,817 4.7 -16.9°
